Location: Shepherdstown, WV
(39.4326°N, 77.8042°W)
Time: 04:06:35
(UTC-04:00)

Vanguard 1 - Pass Details

Date: 03 October 2021
Orbit: 653 x 3829 km, 34.2° (Epoch: 18 October)

Event Time Altitude Azimuth Distance (km) Brightness Sun altitude
Rises 21:47:38 0° 275° (W) 5,854 14.9 -34.3°
Reaches altitude 10° 21:50:52 10° 273° (W) 5,185 14.4 -34.8°
Maximum altitude 22:07:39 68° 195° (SSW) 3,658 12.6 -37.7°
Enters shadow 22:13:21 56° 145° (SE) 4,116 12.7 -38.6°
